Warning: Javascript must be enabled to use all the features on this page!


Page Loading - Please Wait...

Click to hideNews Bulletins

Peak Streamflow for the Nation

USGS 10300000 W WALKER RV NR HUDSON, NV

Lyon County, Nevada
Hydrologic Unit Code 16050302
Latitude  38°48'35", Longitude 119°13'35" NAD27
Drainage area 964  square miles
Gage datum 4,650.00 feet above NGVD29
Output formats
Table
Graph
Tab-separated file
peakfq (watstore) format
Reselect output format
Water
Year
Date Gage
Height
(feet)
Stream-
flow
(cfs)
1915 1915-06-09   1,4701
1916 1916-06-18   1,7101
1917 1917-06-18   2,2001
1918 1918-06-15   1,9501
1919 1919-05-30   1,9001
1920 1920-05-20   9601
1921 1921-06-13   7751
1922 1922-06-07 6.35 2,5306
1923 1923-07-04 4.88 1,5106
1924 1924-05-11 3.33 5286
1947 1947-05-03 2.446 5276
1948 1948-05-18 2.22 4196
1949 1949-06-12 2.26 4346
1950 1950-06-02 2.47 5026
1951 1950-12-10 5.36 1,6906
1952 1952-06-05 4.69 1,4106
1953 1953-06-20 4.56 1,3606
1954 1954-05-10 2.52 5226
1955 1955-06-08 2.22 4036
1956 1955-12-24 7.42 2,7006
1957 1957-06-07 3.57 9386
1958 1958-06-20 5.36 1,7306
1959 1959-05-14 2.20 3736
1960 1960-06-03 2.13 3466
1961 1961-05-29 2.17 3546
1962 1962-05-16 2.38 4006
1963 1963-06-18 6.10 2,1006
1964 1964-05-21 2.17 3616
1965 1965-06-13 3.98 1,0706
1966 1966-05-09 2.27 4006
1967 1967-07-05 5.63 1,8606
1968 1968-05-06 2.20 3926
1969 1969-06-09 5.82 2,0106
1970 1970-06-06 3.47 8686
1971 1971-06-28 4.49 1,3506
1972 1972-05-30 2.28 4446
1973 1973-06-01 4.88 1,4506
1974 1974-06-08 4.28 1,1906
1975 1975-06-08 4.74 1,4506
1976 1976-05-19 2.04 3546
1977 1977-06-30 2.07 3326
1978 1978-06-28 2.85 5546
1979 1979-05-30 4.15 1,1406
1980 1980-07-04 4.97 1,5206
1981 1981-05-04 2.25 3406
1982 1982-06-30 4.99 1,5106
1983 1983-06-20 6.09 2,1206
1984 1984-06-01 4.76 1,4706
1985 1985-04-12 2.59 5126
1986 1986-06-05 5.76 1,9706
1987 1987-05-09 2.39 4356
1988 1988-05-17 2.15 3376
1989 1989-05-11   5001,2,6
1990 1990-05-08 2.08 3066
1991 1991-05-25 2.29 3966
1992 1992-05-10 2.39 4086
1993 1993-05-24 2.91 5866
1994 1994-06-07 2.35 3746
1995 1995-07-11 6.90 2,5306
1996 1996-05-17 5.53 1,8706
1997 1997-01-03 12.18 11,4006
1998 1998-07-11 4.37 1,4706
1999 1999-06-16 4.81 2,2306
2000 2000-05-28 2.52 4936
2001 2001-05-12 2.45 4426
2002 2002-06-07 2.41 4386
2003 2003-05-25 2.75 6186
2004 2004-05-29 2.38 4156
2005 2005-05-30 4.90 1,9906
2006 2006-05-21 5.48 2,3306
2007 2007-06-04 2.15 3136
2008 2008-05-19 2.63 5996
2009 2009-06-01 2.38 4506
2010 2010-06-30 3.68 1,1806
2011 2011-06-25 5.01 1,9406
2012 2012-04-30 2.21 3866
2013 2013-06-04 2.36 4256
2014 2014-05-31 2.04 2486
2015 2015-06-05 2.70 3336
2016 2016-06-06 2.472 4576
2017 2017-06-22 6.26 3,0306
2018 2018-05-26 3.81 1,1406
2019 2019-06-17 5.12 1,7706
2020 2020-05-28 2.09 3656
?
  Peak Gage-Height Qualification Codes.
?
  Peak Streamflow Qualification Codes.